Location: McFarlands Corners
(41.4117°N, 81.3382°W)
Time: 14:23:41
(UTC+00:00)

A-11 Canister half - Pass Details

Date: 18 February 2026
Orbit: 1513 x 1687 km, 47.2° (Epoch: 11 March)

Event Time Altitude Azimuth Distance (km) Brightness Sun altitude
Rises 00:38:24 0° 202° (SSW) 4,922 11.9 -18.7°
Reaches altitude 10° 00:41:55 10° 194° (SSW) 3,940 11.3 -19.4°
Maximum altitude 00:50:46 36° 132° (SE) 2,456 9.7 -21.1°
Enters shadow 00:53:31 31° 104° (ESE) 2,635 9.6 -21.6°
Drops below altitude 10° 00:59:31 10° 72° (ENE) 3,909 - -22.7°
Sets 01:02:57 0° 64° (ENE) 4,879 - -23.3°
